EW4792 Weather Reports


Display with metric or nautical units.
time (UTC)temp
F
wind
direction
speed
MPH
gust
MPH
rain 1hr
in
rain 24hr
in
rain mn
in
humidity
%
barometer
mb
20260508042612 64 105 1.0 8.0 0.00 0.00 0.00 74 1015.1
20260508042215 64 105 3.0 9.0 0.00 0.00 0.00 75 1015.0
20260508041653 64 103 6.0 9.0 0.00 0.00 0.00 75 1014.9
20260508041128 64 97 6.0 9.0 0.00 0.00 0.00 75 1015.0
20260508040623 65 92 5.0 8.0 0.00 0.00 0.00 74 1015.1
20260508040212 65 94 5.0 8.0 0.00 0.00 0.00 74 1015.4
20260508035624 65 99 5.0 8.0 0.00 0.00 0.00 74 1015.5
20260508035121 65 84 6.0 8.0 0.00 0.00 0.00 73 1015.8
20260508034707 65 70 1.0 5.0 0.00 0.00 0.00 73 1016.3
20260508034201 65 66 0.0 4.0 0.00 0.00 0.00 73 1016.4
20260508033655 66 66 1.0 3.0 0.00 0.00 0.00 73 1016.6
20260508033149 66 51 1.0 4.0 0.00 0.00 0.00 73 1016.4
20260508032644 66 43 0.0 4.0 0.00 0.00 0.00 73 1016.4
20260508032127 66 41 1.0 3.0 0.00 0.00 0.00 73 1016.7
20260508031623 66 15 0.0 6.0 0.00 0.00 0.00 73 1016.9
20260508031227 66 10 0.0 6.0 0.00 0.00 0.00 73 1017.0
20260508030703 66 313 1.0 6.0 0.00 0.00 0.00 73 1017.0
20260508030159 66 353 2.0 6.0 0.00 0.00 0.00 73 1016.9
20260508025654 66 357 3.0 6.0 0.00 0.00 0.00 73 1017.0
20260508025151 66 334 1.0 5.0 0.00 0.00 0.00 73 1016.7
20260508024651 65 342 2.0 5.0 0.00 0.00 0.00 73 1017.0
20260508024147 66 342 3.0 5.0 0.00 0.00 0.00 73 1016.9
20260508023614 66 342 1.0 5.0 0.00 0.00 0.00 73 1016.7
20260508023145 66 1 2.0 5.0 0.00 0.00 0.00 73 1016.7
20260508022640 66 103 2.0 13.0 0.00 0.00 0.00 72 1016.1
20260508022140 66 134 6.0 13.0 0.00 0.00 0.00 73 1015.5
20260508021649 66 143 9.0 12.0 0.00 0.00 0.00 72 1015.0
20260508021212 66 120 9.0 11.0 0.00 0.00 0.00 72 1015.0
20260508020708 66 133 4.0 8.0 0.00 0.00 0.00 71 1015.3
20260508020201 66 72 2.0 7.0 0.00 0.00 0.00 71 1015.6
20260508015657 66 127 5.0 10.0 0.00 0.00 0.00 71 1015.2
20260508015147 66 120 5.0 14.0 0.00 0.00 0.00 71 1014.9
20260508014645 66 84 9.0 18.0 0.00 0.00 0.00 72 1014.3
20260508013710 67 107 8.0 12.0 0.00 0.00 0.00 70 1014.4
20260508013148 67 41 3.0 9.0 0.00 0.00 0.00 70 1014.9
20260508012646 67 73 4.0 10.0 0.00 0.00 0.00 69 1014.9
20260508012143 67 37 4.0 9.0 0.00 0.00 0.00 69 1014.9
20260508011638 67 101 4.0 12.0 0.00 0.00 0.00 69 1014.8
20260508011135 67 15 8.0 12.0 0.00 0.00 0.00 69 1015.1
20260508010622 67 348 4.0 15.0 0.00 0.00 0.00 69 1015.0
20260508010202 67 350 9.0 15.0 0.00 0.00 0.00 69 1014.8
20260508005205 67 66 12.0 23.0 0.00 0.00 0.00 69 1013.2
20260508004659 67 121 15.0 23.0 0.00 0.00 0.00 71 1012.3
20260508004153 67 117 14.0 20.0 0.00 0.00 0.00 70 1012.8
20260508003635 67 120 13.0 16.0 0.00 0.00 0.00 69 1013.5
20260508003129 68 124 12.0 16.0 0.00 0.00 0.00 69 1013.9
20260508002625 68 118 9.0 11.0 0.00 0.00 0.00 69 1014.2
20260508002121 68 132 8.0 11.0 0.00 0.00 0.00 68 1014.5
20260508001720 68 110 6.0 8.0 0.00 0.00 0.00 68 1014.9
20260508001147 68 95 3.0 7.0 0.00 0.00 0.00 68 1015.4
20260508000621 68 57 3.0 8.0 0.00 0.00 0.00 68 1015.5
20260508000134 68 86 6.0 8.0 0.00 0.00 0.00 68 1015.4
20260507235620 68 105 5.0 7.0 0.00 0.00 0.00 66 1015.8
20260507235123 68 35 3.0 7.0 0.00 0.00 0.00 66 1016.1
20260507234630 68 68 3.0 9.0 0.00 0.00 0.00 66 1016.0
20260507234125 68 66 5.0 9.0 0.00 0.00 0.00 66 1016.0
20260507233624 69 51 3.0 6.0 0.00 0.00 0.00 66 1016.2
20260507233130 69 75 3.0 6.0 0.00 0.00 0.00 65 1016.4
20260507232628 69 99 3.0 6.0 0.00 0.00 0.00 65 1016.3
20260507232125 69 70 1.0 7.0 0.00 0.00 0.00 65 1016.3
20260507231628 69 80 3.0 8.0 0.00 0.00 0.00 65 1016.2
20260507231130 69 355 5.0 11.0 0.00 0.00 0.00 65 1016.4
20260507230625 69 42 4.0 11.0 0.00 0.00 0.00 65 1016.3
20260507230140 69 78 6.0 11.0 0.00 0.00 0.00 65 1016.5
20260507225622 69 102 6.0 9.0 0.00 0.00 0.00 65 1016.5
20260507225118 68 1 3.0 9.0 0.00 0.00 0.00 65 1016.6
20260507224616 68 84 6.0 12.0 0.00 0.00 0.00 65 1016.8
20260507224134 68 86 6.0 12.0 0.00 0.00 0.00 65 1016.7
20260507223633 68 66 6.0 10.0 0.00 0.00 0.00 66 1016.8
20260507223154 68 74 6.0 10.0 0.00 0.00 0.00 67 1016.9
20260507222709 68 47 5.0 13.0 0.00 0.00 0.00 68 1016.5
20260507222201 68 74 7.0 13.0 0.00 0.00 0.00 67 1016.3
20260507221643 68 85 5.0 9.0 0.00 0.00 0.00 67 1016.5
20260507221143 68 59 3.0 9.0 0.00 0.00 0.00 68 1016.7
20260507220658 68 39 5.0 14.0 0.00 0.00 0.00 67 1016.7
20260507220134 68 68 6.0 14.0 0.00 0.00 0.00 66 1017.0
20260507215632 68 34 6.0 14.0 0.00 0.00 0.00 67 1016.9
20260507215232 68 348 6.0 10.0 0.00 0.00 0.00 68 1016.9
20260507214620 68 15 3.0 11.0 0.00 0.00 0.00 68 1016.5
20260507214209 68 56 6.0 11.0 0.00 0.00 0.00 67 1016.7
20260507213629 68 39 2.0 13.0 0.00 0.00 0.00 68 1016.9
20260507213113 68 101 7.0 13.0 0.00 0.00 0.00 67 1016.9
20260507212612 68 38 8.0 12.0 0.00 0.00 0.00 68 1017.1
20260507212206 68 340 8.0 11.0 0.00 0.00 0.00 68 1017.3
20260507211700 68 43 5.0 12.0 0.00 0.00 0.00 68 1017.0
20260507211155 68 15 4.0 12.0 0.00 0.00 0.00 69 1016.7
20260507210650 68 99 9.0 12.0 0.00 0.00 0.00 69 1016.7
20260507210144 68 76 7.0 12.0 0.00 0.00 0.00 69 1016.8
20260507205655 68 92 8.0 13.0 0.00 0.00 0.00 69 1017.1
20260507205146 68 32 9.0 15.0 0.00 0.00 0.00 69 1017.2
20260507204653 68 31 7.0 16.0 0.00 0.00 0.00 69 1017.1
20260507204147 68 53 8.0 19.0 0.00 0.00 0.00 69 1017.6
20260507203644 68 81 9.0 19.0 0.00 0.00 0.00 70 1016.8
20260507202712 68 32 7.0 18.0 0.00 0.00 0.00 71 1016.7
20260507202121 67 30 8.0 22.0 0.00 0.00 0.00 71 1016.9
20260507201640 68 10 9.0 22.0 0.00 0.00 0.00 71 1016.6
20260507201135 68 26 5.0 13.0 0.00 0.00 0.00 73 1016.6
20260507200628 68 58 8.0 15.0 0.00 0.00 0.00 73 1016.6
20260507200207 68 360 9.0 15.0 0.00 0.00 0.00 73 1016.9
20260507195718 67 10 8.0 15.0 0.00 0.00 0.00 73 1017.1
20260507195149 67 30 8.0 18.0 0.00 0.00 0.00 75 1017.0
20260507194700 67 102 9.0 18.0 0.00 0.00 0.00 75 1017.1
20260507193714 66 10 6.0 20.0 0.00 0.00 0.00 78 1017.3
20260507193146 66 28 10.0 20.0 0.00 0.00 0.00 77 1017.1
20260507192732 65 36 9.0 14.0 0.00 0.00 0.00 80 1017.0
20260507192202 65 48 6.0 13.0 0.00 0.00 0.00 81 1017.3
20260507191638 65 118 6.0 16.0 0.00 0.00 0.00 82 1017.0
20260507191146 64 95 7.0 16.0 0.00 0.00 0.00 83 1017.4
20260507190620 64 113 6.0 12.0 0.00 0.00 0.00 82 1017.3
20260507190134 64 105 9.0 12.0 0.00 0.00 0.00 83 1017.2
20260507185651 64 61 3.0 8.0 0.00 0.00 0.00 84 1017.4
20260507185147 64 89 5.0 8.0 0.00 0.00 0.00 83 1017.6
20260507184647 64 37 3.0 9.0 0.00 0.00 0.00 83 1017.8
20260507184156 64 82 2.0 9.0 0.00 0.00 0.00 83 1017.9
20260507183652 64 344 4.0 9.0 0.00 0.00 0.00 82 1017.9
20260507183152 64 24 3.0 10.0 0.00 0.00 0.00 82 1018.2
20260507182647 64 51 5.0 10.0 0.00 0.00 0.00 82 1018.4
20260507182156 64 20 6.0 12.0 0.00 0.00 0.00 82 1018.8
20260507181642 64 59 6.0 12.0 0.00 0.00 0.00 83 1018.5
20260507180622 64 10 6.0 13.0 0.00 0.00 0.00 83 1018.9
20260507180127 64 55 8.0 13.0 0.00 0.00 0.00 83 1018.7
20260507175709 64 357 4.0 10.0 0.00 0.00 0.00 84 1018.5
20260507175202 64 74 5.0 12.0 0.00 0.00 0.00 84 1018.5
20260507174640 63 70 7.0 12.0 0.00 0.00 0.00 85 1018.3
20260507174147 63 40 7.0 12.0 0.00 0.00 0.00 85 1018.3
20260507173622 62 31 3.0 8.0 0.00 0.00 0.00 86 1018.4
20260507173136 62 71 5.0 13.0 0.00 0.00 0.00 86 1018.5
20260507172629 62 66 7.0 13.0 0.00 0.00 0.00 86 1018.1
20260507172141 62 87 4.0 10.0 0.00 0.00 0.00 86 1018.4
20260507171127 62 101 4.0 14.0 0.00 0.00 0.00 86 1018.3
20260507170644 61 98 8.0 14.0 0.00 0.00 0.00 86 1018.3
20260507170144 61 50 4.0 12.0 0.00 0.00 0.00 87 1018.6
20260507165643 61 43 5.0 12.0 0.00 0.00 0.00 86 1018.5
20260507165118 61 79 3.0 11.0 0.00 0.00 0.00 86 1018.7
20260507164723 61 353 5.0 11.0 0.00 0.00 0.00 87 1019.1
20260507164209 61 35 2.0 15.0 0.00 0.00 0.00 87 1019.1
20260507163647 61 344 9.0 15.0 0.00 0.00 0.00 87 1019.0
20260507163134 61 59 4.0 10.0 0.00 0.00 0.00 87 1018.9
20260507162617 61 20 6.0 10.0 0.00 0.00 0.00 87 1019.1
20260507162120 61 348 2.0 8.0 0.00 0.00 0.00 87 1018.9
20260507161617 60 66 3.0 11.0 0.00 0.00 0.00 87 1019.0
20260507161115 60 355 7.0 12.0 0.00 0.00 0.00 87 1019.1
20260507160722 60 28 6.0 12.0 0.00 0.00 0.00 87 1019.0
20260507160155 60 10 4.0 10.0 0.00 0.00 0.00 88 1019.1
20260507155709 60 5 4.0 11.0 0.00 0.00 0.00 88 1019.3
20260507155145 60 356 7.0 11.0 0.00 0.00 0.00 88 1019.2
20260507154640 60 359 6.0 14.0 0.00 0.00 0.00 88 1018.9
20260507154138 60 10 5.0 14.0 0.00 0.00 0.00 88 1018.5
20260507153656 60 37 6.0 12.0 0.00 0.00 0.00 88 1018.8
20260507153135 60 2 4.0 11.0 0.00 0.00 0.00 88 1018.9
20260507152637 60 38 6.0 11.0 0.00 0.00 0.00 88 1019.1
20260507152119 60 15 5.0 13.0 0.00 0.00 0.00 88 1019.1
20260507151635 60 349 6.0 12.0 0.00 0.00 0.00 88 1019.1
20260507151135 60 342 6.0 12.0 0.00 0.00 0.00 89 1019.0
20260507150630 59 350 6.0 16.0 0.00 0.00 0.00 88 1018.8
20260507150126 59 359 9.0 20.0 0.00 0.00 0.00 89 1018.6
20260507145639 59 10 8.0 15.0 0.00 0.00 0.00 89 1018.6
20260507145116 59 329 7.0 12.0 0.00 0.00 0.00 89 1018.6
20260507144658 59 2 6.0 13.0 0.00 0.00 0.00 89 1018.3
20260507144149 59 59 5.0 13.0 0.00 0.00 0.00 89 1018.6
20260507143650 59 332 2.0 13.0 0.00 0.00 0.00 89 1018.8
20260507143201 59 351 6.0 13.0 0.00 0.00 0.00 89 1018.9
20260507142700 59 346 5.0 14.0 0.00 0.00 0.00 89 1019.1
20260507142155 59 1 8.0 16.0 0.00 0.00 0.00 88 1018.9
20260507141655 59 354 9.0 16.0 0.00 0.00 0.00 88 1018.9
20260507141147 59 10 8.0 20.0 0.00 0.00 0.00 88 1018.9
20260507140644 59 10 11.0 20.0 0.00 0.00 0.00 88 1018.9
20260507140144 60 28 10.0 15.0 0.00 0.00 0.00 87 1018.9
20260507135209 60 3 7.0 13.0 0.00 0.00 0.00 88 1019.1
20260507134705 60 10 5.0 13.0 0.00 0.00 0.00 88 1019.1
20260507134200 60 351 4.0 10.0 0.00 0.00 0.00 88 1019.1
20260507133639 60 37 4.0 10.0 0.00 0.00 0.00 88 1018.7
20260507133145 60 5 1.0 10.0 0.00 0.00 0.00 88 1018.6
20260507132645 60 33 6.0 13.0 0.00 0.00 0.00 87 1018.6
20260507132154 60 358 6.0 13.0 0.00 0.00 0.00 87 1018.6
20260507131708 60 347 6.0 18.0 0.00 0.00 0.00 87 1018.7
20260507131201 60 353 10.0 18.0 0.00 0.00 0.00 87 1018.4
20260507130703 60 343 4.0 10.0 0.00 0.00 0.00 87 1018.6
20260507130156 60 351 7.0 19.0 0.00 0.00 0.00 87 1018.5
20260507125655 60 39 9.0 19.0 0.00 0.00 0.00 87 1018.7
20260507125150 60 338 8.0 13.0 0.00 0.00 0.00 87 1018.6
20260507124703 60 43 6.0 11.0 0.00 0.00 0.00 86 1018.4
20260507124159 60 79 6.0 11.0 0.00 0.00 0.00 87 1018.5
20260507123655 60 49 4.0 10.0 0.00 0.00 0.00 86 1018.3
20260507123151 60 48 4.0 11.0 0.00 0.00 0.00 87 1018.2
20260507122650 60 10 6.0 18.0 0.00 0.00 0.00 87 1018.1
20260507122146 60 24 9.0 19.0 0.00 0.00 0.00 86 1017.7
20260507121707 61 20 10.0 19.0 0.00 0.00 0.00 87 1017.6
20260507121124 61 350 6.0 12.0 0.00 0.00 0.00 87 1017.5
20260507120727 61 31 6.0 12.0 0.00 0.00 0.00 86 1017.6
20260507120201 61 10 6.0 15.0 0.00 0.00 0.00 86 1017.4
20260507115712 61 15 8.0 15.0 0.00 0.00 0.00 86 1017.4
20260507115154 61 326 8.0 14.0 0.00 0.00 0.00 86 1017.2
20260507114708 61 357 9.0 21.0 0.00 0.00 0.00 86 1017.1
20260507114204 61 5 9.0 21.0 0.00 0.00 0.00 86 1017.4
20260507113642 61 15 9.0 18.0 0.00 0.00 0.00 86 1017.4
20260507112711 61 1 9.0 15.0 0.00 0.00 0.00 85 1017.0
20260507112207 61 30 7.0 15.0 0.00 0.00 0.00 85 1016.9
20260507111642 61 5 9.0 15.0 0.00 0.00 0.00 85 1016.9
20260507111120 61 10 5.0 19.0 0.00 0.00 0.00 85 1016.9
20260507110636 61 351 8.0 19.0 0.00 0.00 0.00 85 1016.8
20260507110213 61 41 6.0 14.0 0.00 0.00 0.00 85 1016.8
20260507105649 62 1 8.0 14.0 0.00 0.00 0.00 84 1016.8
20260507105212 62 357 8.0 14.0 0.00 0.00 0.00 85 1016.8
20260507104130 62 28 5.0 11.0 0.00 0.00 0.00 84 1017.0
20260507103709 62 339 6.0 11.0 0.00 0.00 0.00 84 1016.9
20260507103143 62 27 5.0 12.0 0.00 0.00 0.00 84 1016.9
20260507102647 62 20 6.0 11.0 0.00 0.00 0.00 84 1016.9
20260507102149 62 45 5.0 11.0 0.00 0.00 0.00 84 1016.7
20260507101651 62 26 2.0 8.0 0.00 0.00 0.00 84 1016.8
20260507101133 62 10 5.0 12.0 0.00 0.00 0.00 84 1016.5
20260507100651 62 47 6.0 12.0 0.00 0.00 0.00 84 1016.6
20260507100148 62 342 5.0 9.0 0.00 0.00 0.00 84 1016.6
20260507095703 62 20 5.0 9.0 0.00 0.00 0.00 84 1016.7
20260507095202 62 15 5.0 9.0 0.00 0.00 0.00 84 1016.8
20260507094659 62 20 4.0 9.0 0.00 0.00 0.00 84 1016.3
20260507094157 62 27 2.0 9.0 0.00 0.00 0.00 84 1016.4
20260507093700 62 33 5.0 11.0 0.00 0.00 0.00 84 1016.6
20260507093221 62 30 6.0 11.0 0.00 0.00 0.00 84 1016.7
20260507092659 62 10 5.0 11.0 0.00 0.00 0.00 84 1016.6
20260507092158 62 33 6.0 11.0 0.00 0.00 0.00 84 1016.7
20260507091634 62 332 3.0 8.0 0.00 0.00 0.00 84 1016.6
20260507091135 62 42 4.0 10.0 0.00 0.00 0.00 84 1016.2
20260507090650 62 30 4.0 11.0 0.00 0.00 0.00 84 1016.6
20260507090200 62 359 4.0 11.0 0.00 0.00 0.00 84 1016.4
20260507085126 62 344 2.0 9.0 0.00 0.00 0.00 84 1016.4
20260507084641 62 20 4.0 9.0 0.00 0.00 0.00 84 1016.1
20260507084134 62 1 4.0 8.0 0.00 0.00 0.00 84 1016.5
20260507083629 63 15 5.0 8.0 0.00 0.00 0.00 84 1016.5
20260507083128 63 352 2.0 8.0 0.00 0.00 0.00 84 1016.4
20260507082626 63 26 5.0 8.0 0.00 0.00 0.00 84 1016.5
20260507082126 63 10 4.0 8.0 0.00 0.00 0.00 84 1016.4
20260507081622 63 5 4.0 8.0 0.00 0.00 0.00 84 1016.2
20260507081204 63 32 3.0 6.0 0.00 0.00 0.00 84 1016.3
20260507080701 63 41 4.0 6.0 0.00 0.00 0.00 84 1016.5
20260507080211 63 58 0.0 5.0 0.00 0.00 0.00 84 1016.4
20260507075710 63 64 2.0 6.0 0.00 0.00 0.00 84 1016.3
20260507075204 63 20 2.0 5.0 0.00 0.00 0.00 84 1016.4
20260507074701 63 34 1.0 7.0 0.00 0.00 0.00 84 1016.2
20260507074201 63 20 2.0 7.0 0.00 0.00 0.00 84 1016.3
20260507073642 63 53 1.0 6.0 0.00 0.00 0.00 84 1016.6
20260507072712 63 30 4.0 8.0 0.00 0.00 0.00 84 1016.5
20260507072146 63 45 1.0 5.0 0.00 0.00 0.00 84 1016.5
20260507071126 63 66 0.0 6.0 0.00 0.00 0.00 84 1016.4
20260507070615 63 68 3.0 7.0 0.00 0.00 0.00 84 1016.3
20260507070113 63 51 4.0 7.0 0.00 0.00 0.00 84 1016.2
20260507065627 63 356 3.0 7.0 0.00 0.00 0.00 84 1016.4
20260507065141 63 89 4.0 8.0 0.00 0.00 0.00 84 1016.5
20260507064614 63 20 4.0 8.0 0.00 0.00 0.00 84 1016.4
20260507064129 63 27 5.0 7.0 0.00 0.00 0.00 84 1016.4
20260507063642 63 24 3.0 6.0 0.00 0.00 0.00 84 1016.4
20260507063114 63 15 2.0 9.0 0.00 0.00 0.00 84 1016.4
20260507062629 63 61 2.0 10.0 0.00 0.00 0.00 84 1016.4
20260507062122 63 42 4.0 10.0 0.00 0.00 0.00 84 1016.3
20260507061636 63 47 5.0 10.0 0.00 0.00 0.00 84 1016.5
20260507061128 63 29 3.0 8.0 0.00 0.00 0.00 84 1016.6
20260507060623 63 2 3.0 7.0 0.00 0.00 0.00 84 1016.3
20260507060116 63 20 1.0 12.0 0.00 0.00 0.00 84 1016.1
20260507055650 63 346 3.0 12.0 0.00 0.00 0.00 84 1016.0
20260507055119 63 35 5.0 9.0 0.00 0.00 0.00 84 1015.6
20260507054633 63 45 4.0 9.0 0.00 0.00 0.00 84 1015.5
20260507054123 63 10 3.0 10.0 0.00 0.00 0.00 84 1015.8
20260507053638 63 53 5.0 10.0 0.00 0.00 0.00 84 1015.7
20260507053129 64 15 2.0 7.0 0.00 0.00 0.00 84 1015.8
20260507052621 64 24 3.0 7.0 0.00 0.00 0.00 84 1015.5
20260507052115 64 59 3.0 7.0 0.00 0.00 0.00 84 1015.8
20260507051627 64 2 2.0 6.0 0.00 0.00 0.00 84 1015.9
20260507051119 64 24 1.0 6.0 0.00 0.00 0.00 84 1015.7
20260507050614 64 20 2.0 6.0 0.00 0.00 0.00 84 1015.9
20260507050127 64 53 1.0 7.0 0.00 0.00 0.00 84 1016.1
20260507045642 64 24 2.0 7.0 0.00 0.00 0.00 84 1016.1
20260507045154 64 31 3.0 9.0 0.00 0.00 0.00 84 1016.0
20260507044708 64 66 4.0 10.0 0.00 0.00 0.00 84 1015.9
20260507044125 64 24 6.0 11.0 0.00 0.00 0.00 84 1015.7
20260507043644 64 70 2.0 11.0 0.00 0.00 0.00 84 1015.9
20260507043141 64 35 7.0 11.0 0.00 0.00 0.00 84 1015.9